Tiempo cada hora Mushkutyntsi

Hoy, 20 Octubre, Martes

Tiempo Temperatura Precipitaciones Viento Presión Humedad
00:00 +5°C° 0 mm 2 mps 740 mmHg 82%
01:00 +5°C° 0 mm 2 mps 740 mmHg 82%
02:00 +5°C° 0 mm 2 mps 740 mmHg 85%
03:00 +4°C° 0 mm 2 mps 740 mmHg 85%
04:00 +4°C° 0 mm 2 mps 740 mmHg 84%
05:00 +4°C° 0 mm 2 mps 740 mmHg 83%
06:00 +4°C° 0 mm 2 mps 740 mmHg 81%
07:00 +5°C° 0 mm 2 mps 741 mmHg 79%
08:00 +5°C° 0 mm 2 mps 741 mmHg 77%
09:00 +7°C° 0 mm 2 mps 741 mmHg 70%
10:00 +8°C° 0 mm 2 mps 741 mmHg 63%
11:00 +10°C° 0 mm 3 mps 741 mmHg 56%
12:00 +12°C° 0 mm 2 mps 741 mmHg 54%
13:00 +12°C° 0 mm 2 mps 741 mmHg 52%
14:00 +13°C° 0 mm 2 mps 741 mmHg 49%
15:00 +12°C° 0 mm 2 mps 741 mmHg 53%
16:00 +11°C° 0 mm 1 mps 741 mmHg 57%
17:00 +10°C° 0 mm 1 mps 740 mmHg 60%
18:00 +9°C° 0 mm 1 mps 741 mmHg 62%
19:00 +8°C° 0 mm 2 mps 741 mmHg 63%
20:00 +7°C° 0 mm 2 mps 741 mmHg 64%
21:00 +7°C° 0 mm 2 mps 741 mmHg 66%
22:00 +6°C° 0 mm 2 mps 740 mmHg 68%
23:00 +5°C° 0 mm 3 mps 740 mmHg 70%

Mañana, 21 Octubre, Miércoles

Tiempo Temperatura Precipitaciones Viento Presión Humedad
00:00 +5°C° 0 mm 3 mps 740 mmHg 71%
01:00 +5°C° 0 mm 3 mps 740 mmHg 72%
02:00 +5°C° 0 mm 3 mps 739 mmHg 73%
03:00 +4°C° 0 mm 3 mps 739 mmHg 74%
04:00 +4°C° 0 mm 3 mps 738 mmHg 75%
05:00 +4°C° 0 mm 3 mps 738 mmHg 75%
06:00 +4°C° 0 mm 3 mps 738 mmHg 75%
07:00 +4°C° 0 mm 3 mps 738 mmHg 75%
08:00 +5°C° 0 mm 3 mps 737 mmHg 75%
09:00 +7°C° 0 mm 2 mps 737 mmHg 70%
10:00 +8°C° 0 mm 2 mps 737 mmHg 65%
11:00 +9°C° 0 mm 2 mps 737 mmHg 60%
12:00 +10°C° 0 mm 2 mps 737 mmHg 57%
13:00 +12°C° 0 mm 1 mps 737 mmHg 54%
14:00 +12°C° 0 mm 1 mps 737 mmHg 51%
15:00 +12°C° 0 mm 1 mps 736 mmHg 54%
16:00 +11°C° 0 mm 1 mps 736 mmHg 57%
17:00 +10°C° 0 mm 1 mps 736 mmHg 60%
18:00 +10°C° 0 mm 1 mps 736 mmHg 60%
19:00 +10°C° 0 mm 1 mps 736 mmHg 59%
20:00 +9°C° 0 mm 1 mps 736 mmHg 59%
21:00 +9°C° 0 mm 1 mps 736 mmHg 58%
22:00 +9°C° 0 mm 1 mps 736 mmHg 57%
23:00 +9°C° 0 mm 1 mps 736 mmHg 57%

Pasado mañana, 22 Octubre, Jueves

Tiempo Temperatura Precipitaciones Viento Presión Humedad
00:00 +8°C° 0 mm 1 mps 736 mmHg 57%
01:00 +8°C° 0 mm 1 mps 736 mmHg 58%
02:00 +7°C° 0 mm 0 mps 737 mmHg 59%
03:00 +7°C° 0 mm 0 mps 737 mmHg 59%
04:00 +7°C° 0 mm 0 mps 737 mmHg 59%
05:00 +7°C° 0 mm 0 mps 737 mmHg 59%
06:00 +8°C° 0 mm 1 mps 737 mmHg 60%
07:00 +9°C° 0 mm 1 mps 737 mmHg 60%
08:00 +9°C° 0 mm 1 mps 737 mmHg 60%
09:00 +10°C° 0 mm 2 mps 737 mmHg 56%
10:00 +13°C° 0 mm 2 mps 737 mmHg 51%
11:00 +15°C° 0 mm 2 mps 737 mmHg 46%
12:00 +16°C° 0 mm 2 mps 737 mmHg 44%
13:00 +17°C° 0 mm 2 mps 737 mmHg 42%
14:00 +18°C° 0 mm 2 mps 737 mmHg 41%
15:00 +16°C° 0 mm 2 mps 736 mmHg 45%
16:00 +15°C° 0 mm 2 mps 736 mmHg 49%
17:00 +14°C° 0 mm 2 mps 736 mmHg 53%
18:00 +13°C° 0 mm 1 mps 736 mmHg 54%
19:00 +13°C° 0 mm 1 mps 736 mmHg 54%
20:00 +12°C° 0 mm 1 mps 736 mmHg 54%
21:00 +11°C° 0 mm 1 mps 736 mmHg 54%
22:00 +11°C° 0 mm 1 mps 735 mmHg 54%
23:00 +11°C° 0 mm 1 mps 735 mmHg 54%

23 Octubre, Viernes

Tiempo Temperatura Precipitaciones Viento Presión Humedad
00:00 +10°C° 0 mm 1 mps 735 mmHg 55%
01:00 +10°C° 0 mm 1 mps 735 mmHg 56%
02:00 +10°C° 0 mm 1 mps 735 mmHg 57%
03:00 +10°C° 0 mm 1 mps 735 mmHg 58%
04:00 +9°C° 0 mm 1 mps 734 mmHg 60%
05:00 +9°C° 0 mm 1 mps 734 mmHg 62%
06:00 +9°C° 0 mm 1 mps 734 mmHg 63%
07:00 +9°C° 0 mm 1 mps 734 mmHg 63%
08:00 +10°C° 0 mm 1 mps 733 mmHg 64%
09:00 +11°C° 0 mm 1 mps 733 mmHg 60%
10:00 +13°C° 0 mm 2 mps 733 mmHg 57%
11:00 +15°C° 0 mm 2 mps 733 mmHg 53%
12:00 +16°C° 0 mm 2 mps 733 mmHg 52%
13:00 +16°C° 0 mm 2 mps 733 mmHg 52%
14:00 +17°C° 0 mm 2 mps 732 mmHg 51%
15:00 +16°C° 0 mm 2 mps 732 mmHg 55%
16:00 +15°C° 0 mm 1 mps 732 mmHg 59%
17:00 +14°C° 0 mm 1 mps 731 mmHg 63%
18:00 +13°C° 0 mm 1 mps 732 mmHg 64%
19:00 +13°C° 0 mm 1 mps 732 mmHg 65%
20:00 +12°C° 0 mm 1 mps 732 mmHg 65%
21:00 +12°C° 0 mm 2 mps 732 mmHg 67%
22:00 +12°C° 0 mm 2 mps 732 mmHg 69%
23:00 +12°C° 0 mm 2 mps 732 mmHg 70%

24 Octubre, Sábado

Tiempo Temperatura Precipitaciones Viento Presión Humedad
00:00 +12°C° 0 mm 2 mps 732 mmHg 74%
01:00 +12°C° 0 mm 2 mps 732 mmHg 78%
02:00 +12°C° 0 mm 2 mps 732 mmHg 82%
03:00 +12°C° 0 mm 2 mps 732 mmHg 83%
04:00 +10°C° 0 mm 2 mps 732 mmHg 84%
05:00 +10°C° 0 mm 2 mps 732 mmHg 86%
06:00 +10°C° 0.4 mm 2 mps 732 mmHg 88%
07:00 +11°C° 0.4 mm 1 mps 732 mmHg 91%
08:00 +11°C° 0.4 mm 1 mps 732 mmHg 94%
09:00 +11°C° 0.6 mm 1 mps 732 mmHg 94%
10:00 +12°C° 0.6 mm 2 mps 732 mmHg 95%
11:00 +12°C° 0.6 mm 2 mps 732 mmHg 95%
12:00 +11°C° 0.2 mm 3 mps 732 mmHg 93%
13:00 +11°C° 0.2 mm 3 mps 732 mmHg 91%
14:00 +11°C° 0.2 mm 4 mps 732 mmHg 89%
15:00 +11°C° 0 mm 4 mps 732 mmHg 89%
16:00 +11°C° 0 mm 4 mps 732 mmHg 89%
17:00 +11°C° 0 mm 3 mps 732 mmHg 89%
18:00 +11°C° 0 mm 4 mps 733 mmHg 88%
19:00 +10°C° 0 mm 4 mps 733 mmHg 87%
20:00 +10°C° 0 mm 4 mps 734 mmHg 85%
21:00 +8°C° 0 mm 4 mps 734 mmHg 86%
22:00 +8°C° 0 mm 4 mps 734 mmHg 86%
23:00 +7°C° 0 mm 4 mps 734 mmHg 86%

25 Octubre, Domingo

Tiempo Temperatura Precipitaciones Viento Presión Humedad
00:00 +7°C° 0 mm 4 mps 734 mmHg 85%
01:00 +7°C° 0 mm 5 mps 734 mmHg 85%
02:00 +7°C° 0 mm 5 mps 734 mmHg 84%
03:00 +6°C° 0 mm 5 mps 734 mmHg 84%
04:00 +6°C° 0 mm 5 mps 735 mmHg 84%
05:00 +5°C° 0 mm 5 mps 735 mmHg 84%
06:00 +5°C° 0 mm 5 mps 735 mmHg 84%
07:00 +5°C° 0 mm 5 mps 736 mmHg 84%
08:00 +5°C° 0 mm 5 mps 736 mmHg 84%
09:00 +6°C° 0 mm 5 mps 736 mmHg 77%
10:00 +7°C° 0 mm 5 mps 736 mmHg 70%
11:00 +9°C° 0 mm 6 mps 736 mmHg 63%
12:00 +9°C° 0 mm 5 mps 736 mmHg 61%
13:00 +9°C° 0 mm 5 mps 736 mmHg 59%
14:00 +10°C° 0 mm 5 mps 736 mmHg 57%
15:00 +10°C° 0 mm 4 mps 736 mmHg 62%
16:00 +9°C° 0 mm 3 mps 736 mmHg 67%
17:00 +8°C° 0 mm 3 mps 736 mmHg 72%
18:00 +7°C° 0 mm 2 mps 736 mmHg 75%
19:00 +7°C° 0 mm 2 mps 737 mmHg 78%
20:00 +6°C° 0 mm 2 mps 737 mmHg 81%
21:00 +7°C° 0 mm 1 mps 737 mmHg 83%
22:00 +7°C° 0 mm 1 mps 737 mmHg 84%
23:00 +7°C° 0 mm 1 mps 738 mmHg 86%

26 Octubre, Lunes

Tiempo Temperatura Precipitaciones Viento Presión Humedad
00:00 +6°C° 0 mm 1 mps 738 mmHg 87%
01:00 +6°C° 0 mm 1 mps 737 mmHg 89%
02:00 +6°C° 0 mm 1 mps 737 mmHg 90%
03:00 +5°C° 0 mm 1 mps 737 mmHg 90%
04:00 +5°C° 0 mm 1 mps 737 mmHg 91%
05:00 +5°C° 0 mm 1 mps 737 mmHg 91%
06:00 +4°C° 0 mm 2 mps 737 mmHg 90%
07:00 +4°C° 0 mm 2 mps 737 mmHg 89%
08:00 +5°C° 0 mm 2 mps 737 mmHg 88%
09:00 +5°C° 0 mm 3 mps 737 mmHg 81%
10:00 +7°C° 0 mm 4 mps 737 mmHg 75%
11:00 +8°C° 0 mm 4 mps 737 mmHg 68%
12:00 +9°C° 0 mm 5 mps 736 mmHg 65%
13:00 +10°C° 0 mm 5 mps 736 mmHg 62%
14:00 +10°C° 0 mm 5 mps 735 mmHg 60%
15:00 +9°C° 0 mm 5 mps 735 mmHg 63%
16:00 +8°C° 0 mm 4 mps 735 mmHg 66%
17:00 +8°C° 0 mm 4 mps 734 mmHg 69%
18:00 +7°C° 0 mm 4 mps 734 mmHg 70%
19:00 +7°C° 0 mm 4 mps 734 mmHg 71%
20:00 +6°C° 0 mm 4 mps 734 mmHg 72%
21:00 +6°C° 0 mm 5 mps 734 mmHg 72%
22:00 +6°C° 0 mm 5 mps 734 mmHg 72%
23:00 +6°C° 0 mm 5 mps 734 mmHg 72%
Mostrar más

Necesitamos Su Consentimiento

Meteoprog y nuestros Proveedores de Servicios pueden almacenar y acceder a sus datos personales como cookies, identificadores de dispositivo u otras tecnologías similares de su dispositivo y procesar dichos datos para personalizar contenido y anuncios, además de ofrecer funciones de redes sociales y analizar el tráfico.

  • Almacenar y/o acceder a información en su dispositivo

    Se puede almacenar o acceder a cookies, identificadores de dispositivo u otra información de su dispositivo para los fines anteriormente indicados.

  • Anuncios y contenido personalizados, medición de anuncios y contenido, percepciones del público, y desarrollo de productos

    Los anuncios y el contenido pueden personalizarse en base a su perfil. Se pueden añadir más datos para personalizar mejor los anuncios y contenidos. Se puede medir el rendimiento de los anuncios y contenidos. Se puede obtener la percepción sobre el público que ha visto los anuncios y contenidos. Dichos datos pueden usarse para desarrollar o mejorar la experiencia del usuario, sistemas y software.

Al hacer clic en ‘Estoy De Acuerdo’ usted permitirá el uso de las cookies, identificadores de dispositivo, balizas web u otras tecnologías similares indicadas. Su configuración puede cambiarse desde el navegador de su dispositivo.

Para ciertos fines, los intereses legítimos pueden ser considerados por encima del consentimiento. Puede leer más sobre ello en nuestra Política de Privacidad y Cookies.